Location: Ocean City
(38.3360°N, 75.0850°W)
Time: 23:41:27
(UTC-05:00)

deb Explorer IX - Pass Details

Date: 17 November 2019
Orbit: 546 x 1104 km, 38.8° (Epoch: 14 December)

Event Time Altitude Azimuth Distance (km) Brightness Sun altitude
Exits shadow 04:52:28 56° 277° (W) 825 ? -21.8°
Maximum altitude 04:53:32 89° 183° (S) 681 ? -21.6°
Drops below altitude 10° 04:58:05 10° 99° (E) 1,970 ? -20.7°
Sets 05:00:15 0° 99° (E) 2,817 ? -20.3°
